• In India
  • List of Countries
  • For 7 days
  • Water Temperature
  • Satellite Maps
  • Weather Map
  • Weather Widgets
  • user-avatar
    Login

    Hourly Weather Korbielow

    Today, 18 January, Thursday

    Time Temperature Precipitation Wind Pressure Humidity
    00:00 -5°C° 0.1 mm 3 mps 693 mmHg 87%
    01:00 -5°C° 0 mm 3 mps 694 mmHg 89%
    02:00 -5°C° 0.1 mm 3 mps 694 mmHg 90%
    03:00 -5°C° 0.1 mm 3 mps 695 mmHg 90%
    04:00 -5°C° 0.1 mm 2 mps 695 mmHg 91%
    05:00 -4°C° 0.1 mm 2 mps 695 mmHg 91%
    06:00 -4°C° 0.1 mm 2 mps 696 mmHg 91%
    07:00 -4°C° 0.1 mm 2 mps 696 mmHg 90%
    08:00 -5°C° 0.1 mm 3 mps 696 mmHg 87%
    09:00 -4°C° 0.1 mm 3 mps 697 mmHg 83%
    10:00 -2°C° 0.1 mm 3 mps 697 mmHg 80%
    11:00 -2°C° 0 mm 3 mps 697 mmHg 76%
    12:00 -2°C° 0 mm 4 mps 696 mmHg 72%
    13:00 -2°C° 0 mm 4 mps 696 mmHg 69%
    14:00 -2°C° 0.2 mm 5 mps 695 mmHg 72%
    15:00 -2°C° 0.2 mm 5 mps 694 mmHg 75%
    16:00 -4°C° 0.2 mm 6 mps 693 mmHg 78%
    17:00 -3°C° 0.4 mm 7 mps 692 mmHg 78%
    18:00 -3°C° 0.4 mm 7 mps 691 mmHg 77%
    19:00 -4°C° 0.4 mm 8 mps 690 mmHg 77%
    20:00 -3°C° 0.4 mm 7 mps 690 mmHg 78%
    21:00 -3°C° 0.4 mm 7 mps 690 mmHg 79%
    22:00 -2°C° 0.4 mm 7 mps 690 mmHg 79%
    23:00 -3°C° 0.1 mm 7 mps 691 mmHg 79%

    Tomorrow, 19 January, Friday

    Time Temperature Precipitation Wind Pressure Humidity
    00:00 -3°C° 0.1 mm 7 mps 691 mmHg 78%
    01:00 -3°C° 0.1 mm 7 mps 691 mmHg 77%
    02:00 -3°C° 0.1 mm 7 mps 691 mmHg 77%
    03:00 -4°C° 0.1 mm 7 mps 691 mmHg 78%
    04:00 -4°C° 0.1 mm 7 mps 692 mmHg 78%
    05:00 -4°C° 0.1 mm 6 mps 692 mmHg 80%
    06:00 -4°C° 0.1 mm 6 mps 693 mmHg 81%
    07:00 -4°C° 0.1 mm 6 mps 693 mmHg 82%
    08:00 -4°C° 0.1 mm 6 mps 694 mmHg 82%
    09:00 -4°C° 0.1 mm 5 mps 695 mmHg 82%
    10:00 -2°C° 0.1 mm 5 mps 696 mmHg 82%
    11:00 -2°C° 0.1 mm 5 mps 696 mmHg 81%
    12:00 -2°C° 0.1 mm 5 mps 696 mmHg 79%
    13:00 -2°C° 0.1 mm 5 mps 696 mmHg 78%
    14:00 -2°C° 0.1 mm 4 mps 697 mmHg 81%
    15:00 -1°C° 0.1 mm 3 mps 697 mmHg 83%
    16:00 -2°C° 0.1 mm 3 mps 697 mmHg 86%
    17:00 -2°C° 0.1 mm 2 mps 697 mmHg 88%
    18:00 -3°C° 0.1 mm 2 mps 698 mmHg 90%
    19:00 -3°C° 0.1 mm 2 mps 698 mmHg 92%
    20:00 -3°C° 0.1 mm 2 mps 698 mmHg 92%
    21:00 -4°C° 0.1 mm 2 mps 699 mmHg 92%
    22:00 -4°C° 0.1 mm 2 mps 699 mmHg 92%
    23:00 -4°C° 0.1 mm 2 mps 699 mmHg 92%

    Day after tomorrow, 20 January, Saturday

    Time Temperature Precipitation Wind Pressure Humidity
    00:00 -4°C° 0.1 mm 2 mps 699 mmHg 92%
    01:00 -4°C° 0.1 mm 2 mps 699 mmHg 92%
    02:00 -5°C° 0 mm 2 mps 699 mmHg 92%
    03:00 -5°C° 0 mm 2 mps 699 mmHg 92%
    04:00 -6°C° 0 mm 2 mps 699 mmHg 93%
    05:00 -6°C° 0 mm 2 mps 699 mmHg 92%
    06:00 -6°C° 0 mm 2 mps 699 mmHg 90%
    07:00 -6°C° 0 mm 2 mps 699 mmHg 89%
    08:00 -5°C° 0.2 mm 2 mps 699 mmHg 87%
    09:00 -4°C° 0.2 mm 2 mps 699 mmHg 85%
    10:00 -4°C° 0.2 mm 3 mps 699 mmHg 83%
    11:00 -2°C° 0.1 mm 3 mps 698 mmHg 82%
    12:00 -2°C° 0.1 mm 3 mps 698 mmHg 81%
    13:00 -2°C° 0.1 mm 4 mps 697 mmHg 79%
    14:00 -2°C° 0.1 mm 4 mps 697 mmHg 81%
    15:00 -3°C° 0.1 mm 4 mps 696 mmHg 82%
    16:00 -3°C° 0.1 mm 4 mps 696 mmHg 83%
    17:00 -2°C° 0.2 mm 3 mps 696 mmHg 85%
    18:00 -4°C° 0.2 mm 3 mps 696 mmHg 87%
    19:00 -4°C° 0.2 mm 3 mps 696 mmHg 89%
    20:00 -3°C° 0.6 mm 2 mps 696 mmHg 90%
    21:00 -3°C° 0.6 mm 2 mps 696 mmHg 92%
    22:00 -2°C° 0.6 mm 1 mps 697 mmHg 93%
    23:00 -2°C° 0.4 mm 1 mps 697 mmHg 93%

    21 January, Sunday

    Time Temperature Precipitation Wind Pressure Humidity
    00:00 -2°C° 0.4 mm 1 mps 697 mmHg 94%
    01:00 -2°C° 0.4 mm 1 mps 697 mmHg 94%
    02:00 -3°C° 0.1 mm 1 mps 698 mmHg 94%
    03:00 -3°C° 0.1 mm 1 mps 698 mmHg 94%
    04:00 -3°C° 0.1 mm 1 mps 698 mmHg 95%
    05:00 -4°C° 0 mm 1 mps 699 mmHg 95%
    06:00 -4°C° 0 mm 1 mps 699 mmHg 95%
    07:00 -4°C° 0 mm 1 mps 700 mmHg 94%
    08:00 -3°C° 0 mm 1 mps 700 mmHg 92%
    09:00 -5°C° 0 mm 2 mps 701 mmHg 89%
    10:00 -4°C° 0 mm 2 mps 702 mmHg 87%
    11:00 -4°C° 0.1 mm 2 mps 702 mmHg 85%
    12:00 -3°C° 0.1 mm 2 mps 702 mmHg 83%
    13:00 -3°C° 0.1 mm 2 mps 703 mmHg 81%
    14:00 -3°C° 0.1 mm 2 mps 703 mmHg 84%
    15:00 -4°C° 0.1 mm 2 mps 703 mmHg 86%
    16:00 -4°C° 0.1 mm 2 mps 703 mmHg 88%
    17:00 -3°C° 0.1 mm 1 mps 704 mmHg 90%
    18:00 -4°C° 0.1 mm 1 mps 704 mmHg 92%
    19:00 -4°C° 0.1 mm 1 mps 704 mmHg 94%
    20:00 -6°C° 0 mm 1 mps 704 mmHg 95%
    21:00 -6°C° 0 mm 1 mps 705 mmHg 95%
    22:00 -6°C° 0 mm 1 mps 705 mmHg 95%
    23:00 -7°C° 0 mm 0 mps 705 mmHg 95%

    22 January, Monday

    Time Temperature Precipitation Wind Pressure Humidity
    00:00 -7°C° 0 mm 0 mps 705 mmHg 95%
    01:00 -7°C° 0 mm 0 mps 705 mmHg 95%
    02:00 -8°C° 0 mm 0 mps 704 mmHg 95%
    03:00 -8°C° 0 mm 0 mps 704 mmHg 94%
    04:00 -8°C° 0 mm 1 mps 704 mmHg 94%
    05:00 -8°C° 0 mm 1 mps 704 mmHg 93%
    06:00 -9°C° 0 mm 1 mps 704 mmHg 91%
    07:00 -9°C° 0 mm 1 mps 704 mmHg 90%
    08:00 -7°C° 0 mm 1 mps 705 mmHg 85%
    09:00 -6°C° 0 mm 1 mps 705 mmHg 81%
    10:00 -4°C° 0 mm 1 mps 706 mmHg 77%
    11:00 -3°C° 0 mm 1 mps 706 mmHg 73%
    12:00 -2°C° 0 mm 1 mps 706 mmHg 69%
    13:00 -1°C° 0 mm 1 mps 706 mmHg 65%
    14:00 -2°C° 0 mm 1 mps 706 mmHg 69%
    15:00 -2°C° 0 mm 1 mps 706 mmHg 73%
    16:00 -3°C° 0 mm 1 mps 706 mmHg 77%
    17:00 -4°C° 0 mm 1 mps 706 mmHg 79%
    18:00 -4°C° 0 mm 1 mps 707 mmHg 80%
    19:00 -4°C° 0 mm 1 mps 707 mmHg 81%
    20:00 -4°C° 0 mm 1 mps 707 mmHg 80%
    21:00 -6°C° 0 mm 2 mps 707 mmHg 79%
    22:00 -6°C° 0 mm 2 mps 707 mmHg 78%
    23:00 -6°C° 0 mm 2 mps 707 mmHg 79%

    23 January, Tuesday

    Time Temperature Precipitation Wind Pressure Humidity
    00:00 -6°C° 0 mm 2 mps 707 mmHg 80%
    01:00 -5°C° 0 mm 2 mps 707 mmHg 81%
    02:00 -5°C° 0 mm 2 mps 707 mmHg 83%
    03:00 -5°C° 0 mm 2 mps 707 mmHg 85%
    04:00 -5°C° 0 mm 2 mps 707 mmHg 87%
    05:00 -5°C° 0 mm 2 mps 707 mmHg 88%
    06:00 -5°C° 0 mm 2 mps 707 mmHg 90%
    07:00 -5°C° 0 mm 2 mps 707 mmHg 91%
    08:00 -4°C° 0.1 mm 2 mps 707 mmHg 89%
    09:00 -3°C° 0.1 mm 2 mps 707 mmHg 88%
    10:00 -2°C° 0.1 mm 3 mps 707 mmHg 87%
    11:00 -1°C° 0.4 mm 3 mps 707 mmHg 87%
    12:00 -1°C° 0.4 mm 3 mps 707 mmHg 88%
    13:00 0°C° 0.4 mm 3 mps 707 mmHg 89%
    14:00 0°C° 0.6 mm 3 mps 707 mmHg 90%
    15:00 0°C° 0.6 mm 3 mps 707 mmHg 92%
    16:00 0°C° 0.6 mm 3 mps 706 mmHg 93%
    17:00 +1°C° 0.3 mm 3 mps 707 mmHg 94%
    18:00 +1°C° 0.3 mm 3 mps 707 mmHg 95%
    19:00 +1°C° 0.3 mm 3 mps 707 mmHg 95%
    20:00 +1°C° 0.3 mm 3 mps 707 mmHg 95%
    21:00 +1°C° 0.3 mm 3 mps 707 mmHg 95%
    22:00 +2°C° 0.3 mm 3 mps 707 mmHg 96%
    23:00 +1°C° 0.1 mm 3 mps 707 mmHg 95%
    Show more